User: anonymous   Login
Location: Red Shale Campground
(45.5700°N, 106.1600°W)
Time: 15:05:03
(UTC-06:00)
Language:

FENGYUN 3A - Orbit

View from above orbital plane
View from above orbital plane
View from above satellite
View from above satellite

Ground track
Ground track

The orbit data is extracted from the following two-line orbital elements,

1 32958U 08026A   15246.76982223 +.00000013 +00000-0 +25737-4 0  9992
2 32958 098.4951 294.1519 0010167 018.6272 341.5272 14.19573815376775
Epoch (UTC): 03 September 2015 18:28:32
Eccentricity: 0.0010167
inclination: 98.4951°
perigee height: 819 km
apogee height: 834 km
right ascension of ascending node: 294.1519°
argument of perigee: 18.6272°
revolutions per day: 14.19573815
mean anomaly at epoch: 341.5272°
orbit number at epoch: 37677

The dashed part of the orbit path shows where the satellite is in the earth's shadow,  

DLR